Time,TemperatureF,DewpointF,PressureIn,WindDirection,WindDirectionDegrees,WindSpeedMPH,WindSpeedGustMPH,Humidity,HourlyPrecipIn,Conditions,Clouds,dailyrainin,SoftwareType,DateUTC
2013-11-19 00:02:00,33.1,25.5,30.20,SSE,156,0.0,0.0,72,0.00,,,0.00,meteohub,2013-11-19 06:02:00,
2013-11-19 00:07:00,33.1,25.7,30.20,SSE,156,0.0,0.0,73,0.00,,,0.00,meteohub,2013-11-19 06:07:00,
2013-11-19 00:12:00,32.0,25.3,30.20,SSE,156,0.0,0.0,74,0.00,,,0.00,meteohub,2013-11-19 06:12:00,
2013-11-19 00:17:00,32.0,25.7,30.20,SSE,156,0.0,0.0,76,0.00,,,0.00,meteohub,2013-11-19 06:17:00,
2013-11-19 00:22:00,30.9,25.7,30.20,SSE,156,0.0,0.0,77,0.00,,,0.00,meteohub,2013-11-19 06:22:00,
2013-11-19 00:27:00,30.9,25.7,30.20,SSE,156,0.0,1.0,78,0.00,,,0.00,meteohub,2013-11-19 06:27:00,
2013-11-19 00:32:00,30.0,25.5,30.20,SSE,156,0.0,1.0,78,0.00,,,0.00,meteohub,2013-11-19 06:32:00,
2013-11-19 00:37:00,30.9,25.5,30.19,SSE,156,0.0,1.0,79,0.00,,,0.00,meteohub,2013-11-19 06:37:00,
2013-11-19 00:42:00,30.0,25.5,30.19,SSE,156,0.0,0.0,78,0.00,,,0.00,meteohub,2013-11-19 06:42:00,
2013-11-19 00:47:00,30.0,25.3,30.19,SSE,156,0.0,0.0,79,0.00,,,0.00,meteohub,2013-11-19 06:47:00,
2013-11-19 00:52:00,30.0,25.3,30.19,SSE,156,0.0,1.0,79,0.00,,,0.00,meteohub,2013-11-19 06:52:00,
2013-11-19 00:57:00,30.0,25.5,30.19,SSE,156,0.0,1.0,80,0.00,,,0.00,meteohub,2013-11-19 06:57:00,
2013-11-19 01:02:00,30.0,25.3,30.19,SSE,156,0.0,1.0,80,0.00,,,0.00,meteohub,2013-11-19 07:02:00,
2013-11-19 01:07:00,30.0,25.3,30.19,SSE,156,0.0,0.0,79,0.00,,,0.00,meteohub,2013-11-19 07:07:00,
2013-11-19 01:12:00,28.9,25.2,30.19,SSE,156,0.0,0.0,80,0.00,,,0.00,meteohub,2013-11-19 07:12:00,
2013-11-19 01:17:00,28.9,25.5,30.19,SSE,156,0.0,3.0,81,0.00,,,0.00,meteohub,2013-11-19 07:17:00,
2013-11-19 01:22:00,30.0,25.3,30.19,SSE,156,0.0,4.0,81,0.00,,,0.00,meteohub,2013-11-19 07:22:00,
2013-11-19 01:27:00,30.9,25.3,30.18,SSE,156,0.0,4.0,78,0.00,,,0.00,meteohub,2013-11-19 07:27:00,
2013-11-19 01:32:00,32.0,25.2,30.18,SSE,156,0.0,4.0,76,0.00,,,0.00,meteohub,2013-11-19 07:32:00,
2013-11-19 01:38:00,33.1,25.3,30.18,SSE,156,0.0,2.0,75,0.00,,,0.00,meteohub,2013-11-19 07:38:00,
2013-11-19 01:43:00,33.1,25.2,30.18,SSE,156,0.0,0.0,74,0.00,,,0.00,meteohub,2013-11-19 07:43:00,
2013-11-19 01:48:00,33.1,25.0,30.19,SSE,156,0.0,0.0,73,0.00,,,0.00,meteohub,2013-11-19 07:48:00,
2013-11-19 01:53:00,33.1,25.0,30.18,SSE,156,0.0,1.0,72,0.00,,,0.00,meteohub,2013-11-19 07:53:00,
2013-11-19 01:58:00,34.0,25.0,30.18,SSE,156,0.0,3.0,72,0.00,,,0.00,meteohub,2013-11-19 07:58:00,
2013-11-19 02:03:00,34.0,25.2,30.18,SSE,156,0.0,3.0,72,0.00,,,0.00,meteohub,2013-11-19 08:03:00,
2013-11-19 02:08:00,33.1,25.2,30.18,SSE,156,0.0,4.0,72,0.00,,,0.00,meteohub,2013-11-19 08:08:00,
2013-11-19 02:13:00,33.1,25.2,30.18,SSE,156,0.0,4.0,72,0.00,,,0.00,meteohub,2013-11-19 08:13:00,
2013-11-19 02:18:00,33.1,25.2,30.18,SSE,156,0.0,4.0,72,0.00,,,0.00,meteohub,2013-11-19 08:18:00,
2013-11-19 02:23:00,33.1,25.2,30.18,SSE,156,0.0,2.0,72,0.00,,,0.00,meteohub,2013-11-19 08:23:00,
2013-11-19 02:28:00,33.1,25.0,30.18,SSE,156,0.0,2.0,72,0.00,,,0.00,meteohub,2013-11-19 08:28:00,
2013-11-19 02:33:00,33.1,25.3,30.17,SSE,156,0.0,1.0,72,0.00,,,0.00,meteohub,2013-11-19 08:33:00,
2013-11-19 02:38:00,34.0,25.2,30.17,SSE,156,0.0,2.0,72,0.00,,,0.00,meteohub,2013-11-19 08:38:00,
2013-11-19 02:43:00,34.0,25.3,30.17,SSE,156,0.0,3.0,72,0.00,,,0.00,meteohub,2013-11-19 08:43:00,
2013-11-19 02:49:00,34.0,25.3,30.17,SSE,156,0.0,3.0,71,0.00,,,0.00,meteohub,2013-11-19 08:49:00,
2013-11-19 02:54:00,34.0,25.0,30.17,SSE,156,0.0,3.0,71,0.00,,,0.00,meteohub,2013-11-19 08:54:00,
2013-11-19 02:59:00,34.0,25.3,30.17,SSE,156,0.0,2.0,71,0.00,,,0.00,meteohub,2013-11-19 08:59:00,
2013-11-19 03:04:00,33.1,25.2,30.17,SSE,156,0.0,2.0,71,0.00,,,0.00,meteohub,2013-11-19 09:04:00,
2013-11-19 03:09:00,33.1,25.0,30.17,SSE,156,0.0,2.0,71,0.00,,,0.00,meteohub,2013-11-19 09:09:00,
2013-11-19 03:14:00,33.1,24.4,30.17,SSE,156,0.0,0.0,72,0.00,,,0.00,meteohub,2013-11-19 09:14:00,
2013-11-19 03:19:00,32.0,24.6,30.17,SSE,156,0.0,0.0,72,0.00,,,0.00,meteohub,2013-11-19 09:19:00,
2013-11-19 03:24:00,32.0,24.6,30.17,SSE,156,0.0,0.0,74,0.00,,,0.00,meteohub,2013-11-19 09:24:00,
2013-11-19 03:29:00,30.9,24.6,30.17,SSE,156,0.0,0.0,74,0.00,,,0.00,meteohub,2013-11-19 09:29:00,
2013-11-19 03:35:00,30.0,24.6,30.17,SSE,156,0.0,0.0,76,0.00,,,0.00,meteohub,2013-11-19 09:35:00,
2013-11-19 03:40:00,30.0,24.8,30.16,SSE,156,0.0,0.0,77,0.00,,,0.00,meteohub,2013-11-19 09:40:00,
2013-11-19 03:45:00,30.0,24.8,30.16,SSE,156,2.0,0.0,78,0.00,,,0.00,meteohub,2013-11-19 09:45:00,
2013-11-19 03:50:00,30.9,24.8,30.16,SSE,156,0.0,4.0,77,0.00,,,0.00,meteohub,2013-11-19 09:50:00,
2013-11-19 03:55:00,30.9,24.8,30.16,SSE,156,0.0,4.0,76,0.00,,,0.00,meteohub,2013-11-19 09:55:00,
2013-11-19 04:00:00,32.0,25.2,30.16,SSE,156,4.0,4.0,76,0.00,,,0.00,meteohub,2013-11-19 10:00:00,
2013-11-19 04:05:00,32.0,25.2,30.16,SSE,156,0.0,4.0,75,0.00,,,0.00,meteohub,2013-11-19 10:05:00,
2013-11-19 04:10:00,33.1,25.2,30.16,SSE,156,0.0,4.0,75,0.00,,,0.00,meteohub,2013-11-19 10:10:00,
2013-11-19 04:15:00,33.1,25.2,30.15,SSE,156,0.0,4.0,74,0.00,,,0.00,meteohub,2013-11-19 10:15:00,
2013-11-19 04:20:00,33.1,25.0,30.15,SSE,156,0.0,3.0,73,0.00,,,0.00,meteohub,2013-11-19 10:20:00,
2013-11-19 04:25:00,33.1,25.0,30.15,SSE,156,0.0,3.0,73,0.00,,,0.00,meteohub,2013-11-19 10:25:00,
2013-11-19 04:30:00,33.1,25.3,30.15,SSE,156,0.0,3.0,73,0.00,,,0.00,meteohub,2013-11-19 10:30:00,
2013-11-19 04:35:00,33.1,25.3,30.14,SSE,156,1.0,3.0,74,0.00,,,0.00,meteohub,2013-11-19 10:35:00,
2013-11-19 04:41:00,33.1,25.3,30.14,SSE,158,1.0,4.0,74,0.00,,,0.00,meteohub,2013-11-19 10:41:00,
2013-11-19 04:46:00,33.1,25.3,30.14,SSE,158,0.0,4.0,74,0.00,,,0.00,meteohub,2013-11-19 10:46:00,
2013-11-19 04:51:00,33.1,25.3,30.14,SSE,158,0.0,4.0,75,0.00,,,0.00,meteohub,2013-11-19 10:51:00,
2013-11-19 04:56:00,33.1,25.5,30.14,SSE,158,0.0,3.0,74,0.00,,,0.00,meteohub,2013-11-19 10:56:00,
2013-11-19 05:01:00,32.0,25.7,30.14,SSE,158,0.0,3.0,75,0.00,,,0.00,meteohub,2013-11-19 11:01:00,
2013-11-19 05:06:00,32.0,25.7,30.14,SSE,158,0.0,3.0,76,0.00,,,0.00,meteohub,2013-11-19 11:06:00,
2013-11-19 05:11:00,32.0,25.5,30.14,SSE,158,0.0,3.0,76,0.00,,,0.00,meteohub,2013-11-19 11:11:00,
2013-11-19 05:16:00,32.0,25.5,30.15,SSE,158,0.0,3.0,77,0.00,,,0.00,meteohub,2013-11-19 11:16:00,
2013-11-19 05:21:00,32.0,26.1,30.15,SSE,158,0.0,3.0,77,0.00,,,0.00,meteohub,2013-11-19 11:21:00,
2013-11-19 05:26:00,32.0,26.2,30.15,SSE,158,1.0,3.0,78,0.00,,,0.00,meteohub,2013-11-19 11:26:00,
2013-11-19 05:31:00,32.0,26.2,30.15,SSE,158,0.0,4.0,78,0.00,,,0.00,meteohub,2013-11-19 11:31:00,
2013-11-19 05:36:00,32.0,26.2,30.15,SSE,158,0.0,4.0,78,0.00,,,0.00,meteohub,2013-11-19 11:36:00,
2013-11-19 05:41:00,32.0,26.2,30.14,SSE,158,0.0,4.0,78,0.00,,,0.00,meteohub,2013-11-19 11:41:00,
2013-11-19 05:46:00,32.0,26.2,30.14,SSE,158,0.0,2.0,78,0.00,,,0.00,meteohub,2013-11-19 11:46:00,
2013-11-19 05:52:00,32.0,26.2,30.14,SSE,158,0.0,1.0,75,0.00,,,0.00,meteohub,2013-11-19 11:52:00,
2013-11-19 05:57:00,30.9,26.2,30.14,SSE,158,0.0,0.0,78,0.00,,,0.00,meteohub,2013-11-19 11:57:00,
2013-11-19 06:02:00,30.9,26.2,30.14,SSE,158,0.0,0.0,78,0.00,,,0.00,meteohub,2013-11-19 12:02:00,
2013-11-19 06:07:00,30.0,26.4,30.14,SSE,158,0.0,0.0,80,0.00,,,0.00,meteohub,2013-11-19 12:07:00,
2013-11-19 06:12:00,30.0,26.4,30.14,SSE,158,0.0,2.0,81,0.00,,,0.00,meteohub,2013-11-19 12:12:00,
2013-11-19 06:17:00,30.0,26.6,30.14,SSE,158,0.0,2.0,82,0.00,,,0.00,meteohub,2013-11-19 12:17:00,
2013-11-19 06:22:00,30.0,26.8,30.14,SSE,158,0.0,2.0,82,0.00,,,0.00,meteohub,2013-11-19 12:22:00,
2013-11-19 06:27:00,30.0,26.8,30.14,SSE,158,0.0,2.0,82,0.00,,,0.00,meteohub,2013-11-19 12:27:00,
2013-11-19 06:32:00,30.9,26.8,30.13,SSE,158,0.0,1.0,82,0.00,,,0.00,meteohub,2013-11-19 12:32:00,
2013-11-19 06:37:00,30.9,26.8,30.13,SSE,158,1.0,2.0,81,0.00,,,0.00,meteohub,2013-11-19 12:37:00,
2013-11-19 06:42:00,32.0,26.2,30.13,SSE,158,0.0,2.0,80,0.00,,,0.00,meteohub,2013-11-19 12:42:00,
2013-11-19 06:47:00,32.0,26.6,30.13,SSE,158,0.0,2.0,79,0.00,,,0.00,meteohub,2013-11-19 12:47:00,
2013-11-19 06:52:00,32.0,26.6,30.13,SSE,158,0.0,3.0,79,0.00,,,0.00,meteohub,2013-11-19 12:52:00,
2013-11-19 06:57:00,32.0,26.6,30.13,SSE,158,0.0,3.0,79,0.00,,,0.00,meteohub,2013-11-19 12:57:00,
2013-11-19 07:02:00,32.0,26.6,30.12,SSE,158,2.0,3.0,78,0.00,,,0.00,meteohub,2013-11-19 13:02:00,
2013-11-19 07:07:00,32.0,26.8,30.12,SE,137,0.0,4.0,78,0.00,,,0.00,meteohub,2013-11-19 13:07:00,
2013-11-19 07:12:00,33.1,26.8,30.13,SE,137,0.0,4.0,78,0.00,,,0.00,meteohub,2013-11-19 13:12:00,
2013-11-19 07:17:00,33.1,26.8,30.13,SSE,153,4.0,4.0,77,0.00,,,0.00,meteohub,2013-11-19 13:17:00,
2013-11-19 07:22:00,33.1,26.8,30.13,SE,128,0.0,4.0,77,0.00,,,0.00,meteohub,2013-11-19 13:22:00,
2013-11-19 07:27:00,33.1,26.8,30.13,SE,128,0.0,4.0,76,0.00,,,0.00,meteohub,2013-11-19 13:27:00,
2013-11-19 07:32:00,33.1,27.0,30.12,SSE,152,0.0,4.0,76,0.00,,,0.00,meteohub,2013-11-19 13:32:00,
2013-11-19 07:37:00,34.0,27.1,30.12,SSE,159,0.0,5.0,76,0.00,,,0.00,meteohub,2013-11-19 13:37:00,
2013-11-19 07:42:00,34.0,27.3,30.12,SSE,159,4.0,7.0,77,0.00,,,0.00,meteohub,2013-11-19 13:42:00,
2013-11-19 07:47:00,34.0,27.3,30.12,SSE,165,4.0,7.0,77,0.00,,,0.00,meteohub,2013-11-19 13:47:00,
2013-11-19 07:52:00,34.0,27.3,30.12,SSE,167,5.0,7.0,76,0.00,,,0.00,meteohub,2013-11-19 13:52:00,
2013-11-19 07:57:00,34.0,27.5,30.12,SSE,157,3.0,7.0,76,0.00,,,0.00,meteohub,2013-11-19 13:57:00,
2013-11-19 08:02:00,35.1,27.7,30.12,SSE,165,0.0,7.0,76,0.00,,,0.00,meteohub,2013-11-19 14:02:00,
2013-11-19 08:07:00,35.1,28.0,30.12,South,173,0.0,7.0,76,0.00,,,0.00,meteohub,2013-11-19 14:07:00,
2013-11-19 08:12:00,35.1,28.2,30.12,SSE,163,1.0,7.0,76,0.00,,,0.00,meteohub,2013-11-19 14:12:00,
2013-11-19 08:17:00,36.0,28.4,30.12,SSE,157,0.0,7.0,75,0.00,,,0.00,meteohub,2013-11-19 14:17:00,
2013-11-19 08:22:00,36.0,28.6,30.11,South,172,0.0,7.0,75,0.00,,,0.00,meteohub,2013-11-19 14:22:00,
2013-11-19 08:27:00,36.0,28.9,30.12,South,173,5.0,7.0,75,0.00,,,0.00,meteohub,2013-11-19 14:27:00,
2013-11-19 08:29:00,37.0,29.1,30.12,South,179,0.0,7.0,74,0.00,,,0.00,meteohub,2013-11-19 14:29:00,
2013-11-19 08:34:00,37.0,29.3,30.11,SSE,165,0.0,6.0,74,0.00,,,0.00,meteohub,2013-11-19 14:34:00,
2013-11-19 08:39:00,37.0,29.7,30.11,South,171,0.0,6.0,74,0.00,,,0.00,meteohub,2013-11-19 14:39:00,
2013-11-19 08:44:00,37.9,29.8,30.11,South,171,0.0,6.0,74,0.00,,,0.00,meteohub,2013-11-19 14:44:00,
2013-11-19 08:50:00,37.9,30.0,30.10,South,182,0.0,6.0,74,0.00,,,0.00,meteohub,2013-11-19 14:50:00,
2013-11-19 08:55:00,39.0,30.4,30.10,SSW,194,0.0,6.0,72,0.00,,,0.00,meteohub,2013-11-19 14:55:00,
2013-11-19 09:00:00,39.9,30.7,30.09,South,186,2.0,8.0,71,0.00,,,0.00,meteohub,2013-11-19 15:00:00,
2013-11-19 09:05:00,39.9,30.7,30.09,South,186,0.0,11.0,70,0.00,,,0.00,meteohub,2013-11-19 15:05:00,
2013-11-19 09:11:00,41.0,30.7,30.09,South,187,0.0,11.0,69,0.00,,,0.00,meteohub,2013-11-19 15:11:00,
2013-11-19 09:16:00,42.1,30.9,30.08,SSE,168,3.0,11.0,67,0.00,,,0.00,meteohub,2013-11-19 15:16:00,
2013-11-19 09:21:00,42.1,31.6,30.08,South,189,2.0,9.0,66,0.00,,,0.00,meteohub,2013-11-19 15:21:00,
2013-11-19 09:26:00,43.0,31.8,30.08,South,182,8.0,9.0,65,0.00,,,0.00,meteohub,2013-11-19 15:26:00,
2013-11-19 09:31:00,44.1,31.8,30.08,South,178,4.0,11.0,63,0.00,,,0.00,meteohub,2013-11-19 15:31:00,
2013-11-19 09:37:00,45.0,31.6,30.07,South,176,7.0,11.0,63,0.00,,,0.00,meteohub,2013-11-19 15:37:00,
2013-11-19 09:42:00,46.0,32.0,30.07,SSW,194,6.0,11.0,60,0.00,,,0.00,meteohub,2013-11-19 15:42:00,
2013-11-19 09:47:00,46.0,32.2,30.07,South,176,4.0,12.0,59,0.00,,,0.00,meteohub,2013-11-19 15:47:00,
2013-11-19 09:52:00,46.9,32.2,30.07,SSE,165,4.0,12.0,57,0.00,,,0.00,meteohub,2013-11-19 15:52:00,
2013-11-19 09:57:00,48.0,32.0,30.06,SSW,202,11.0,14.0,56,0.00,,,0.00,meteohub,2013-11-19 15:57:00,
2013-11-19 10:02:00,48.0,31.6,30.06,SSW,196,5.0,14.0,55,0.00,,,0.00,meteohub,2013-11-19 16:02:00,
2013-11-19 10:07:00,48.9,32.5,30.06,SSW,198,7.0,14.0,53,0.00,,,0.00,meteohub,2013-11-19 16:07:00,
2013-11-19 10:12:00,48.9,31.8,30.06,SSW,194,7.0,14.0,53,0.00,,,0.00,meteohub,2013-11-19 16:12:00,
2013-11-19 10:17:00,50.0,32.7,30.06,SSW,207,9.0,14.0,52,0.00,,,0.00,meteohub,2013-11-19 16:17:00,
2013-11-19 10:22:00,50.0,32.7,30.06,SSW,194,7.0,14.0,51,0.00,,,0.00,meteohub,2013-11-19 16:22:00,
2013-11-19 10:27:00,51.1,32.7,30.06,SSW,199,11.0,14.0,50,0.00,,,0.00,meteohub,2013-11-19 16:27:00,
2013-11-19 10:32:00,51.1,32.4,30.06,South,170,7.0,16.0,50,0.00,,,0.00,meteohub,2013-11-19 16:32:00,
2013-11-19 10:37:00,52.0,32.9,30.06,SSW,202,9.0,17.0,51,0.00,,,0.00,meteohub,2013-11-19 16:37:00,
2013-11-19 10:42:00,52.0,33.1,30.06,SSE,166,4.0,17.0,51,0.00,,,0.00,meteohub,2013-11-19 16:42:00,
2013-11-19 10:47:00,53.1,33.8,30.06,SSW,202,12.0,17.0,49,0.00,,,0.00,meteohub,2013-11-19 16:47:00,
2013-11-19 10:52:00,53.1,34.2,30.05,SSE,163,9.0,17.0,49,0.00,,,0.00,meteohub,2013-11-19 16:52:00,
2013-11-19 10:57:00,54.0,34.0,30.05,South,174,5.0,17.0,49,0.00,,,0.00,meteohub,2013-11-19 16:57:00,
2013-11-19 11:02:00,54.0,34.3,30.04,South,182,16.0,16.0,49,0.00,,,0.00,meteohub,2013-11-19 17:02:00,
2013-11-19 11:07:00,55.0,34.7,30.04,SW,214,20.0,21.0,48,0.00,,,0.00,meteohub,2013-11-19 17:07:00,
2013-11-19 11:12:00,55.0,35.1,30.04,SSW,200,11.0,22.0,48,0.00,,,0.00,meteohub,2013-11-19 17:12:00,
2013-11-19 11:17:00,55.9,34.7,30.02,SSW,196,14.0,22.0,47,0.00,,,0.00,meteohub,2013-11-19 17:17:00,
2013-11-19 11:22:00,55.9,35.2,30.02,SSW,204,10.0,22.0,47,0.00,,,0.00,meteohub,2013-11-19 17:22:00,
2013-11-19 11:27:00,55.9,35.4,30.02,SSW,209,14.0,21.0,47,0.00,,,0.00,meteohub,2013-11-19 17:27:00,
2013-11-19 11:32:00,57.0,35.2,30.01,South,188,9.0,23.0,46,0.00,,,0.00,meteohub,2013-11-19 17:32:00,
2013-11-19 11:36:00,57.0,35.6,30.01,SSW,211,21.0,23.0,46,0.00,,,0.00,meteohub,2013-11-19 17:36:00,
2013-11-19 11:41:00,57.9,35.6,30.00,SSW,194,16.0,26.0,45,0.00,,,0.00,meteohub,2013-11-19 17:41:00,
2013-11-19 11:46:00,59.0,35.6,30.00,SSW,200,22.0,26.0,44,0.00,,,0.00,meteohub,2013-11-19 17:46:00,
2013-11-19 11:52:00,59.0,36.3,30.00,South,178,11.0,27.0,44,0.00,,,0.00,meteohub,2013-11-19 17:52:00,
2013-11-19 11:57:00,60.1,36.3,29.99,South,190,12.0,27.0,44,0.00,,,0.00,meteohub,2013-11-19 17:57:00,
2013-11-19 12:02:00,60.1,35.8,29.99,SSW,196,17.0,28.0,44,0.00,,,0.00,meteohub,2013-11-19 18:02:00,
2013-11-19 12:08:00,60.1,36.0,29.99,South,186,14.0,28.0,43,0.00,,,0.00,meteohub,2013-11-19 18:08:00,
2013-11-19 12:13:00,60.1,36.1,29.99,SSW,201,22.0,22.0,43,0.00,,,0.00,meteohub,2013-11-19 18:13:00,
2013-11-19 12:18:00,60.1,36.5,29.98,South,182,10.0,26.0,43,0.00,,,0.00,meteohub,2013-11-19 18:18:00,
2013-11-19 12:23:00,60.1,36.7,29.98,SE,140,13.0,26.0,43,0.00,,,0.00,meteohub,2013-11-19 18:23:00,
2013-11-19 12:29:00,61.0,36.1,29.97,South,184,15.0,26.0,42,0.00,,,0.00,meteohub,2013-11-19 18:29:00,
2013-11-19 12:34:00,61.0,36.5,29.97,SSW,197,18.0,25.0,42,0.00,,,0.00,meteohub,2013-11-19 18:34:00,
2013-11-19 12:39:00,61.0,36.3,29.96,South,173,16.0,26.0,41,0.00,,,0.00,meteohub,2013-11-19 18:39:00,
2013-11-19 12:45:00,61.0,35.8,29.96,SSW,192,21.0,26.0,41,0.00,,,0.00,meteohub,2013-11-19 18:45:00,
2013-11-19 12:50:00,61.0,36.7,29.96,SSW,200,10.0,29.0,42,0.00,,,0.00,meteohub,2013-11-19 18:50:00,
2013-11-19 12:55:00,61.0,35.8,29.95,SSW,194,12.0,27.0,41,0.00,,,0.00,meteohub,2013-11-19 18:55:00,
2013-11-19 13:01:00,61.0,36.1,29.95,South,180,15.0,24.0,40,0.00,,,0.00,meteohub,2013-11-19 19:01:00,
2013-11-19 13:05:00,61.0,36.1,29.94,SW,215,15.0,24.0,41,0.00,,,0.00,meteohub,2013-11-19 19:05:00,
2013-11-19 13:10:00,61.0,35.2,29.94,South,182,13.0,27.0,40,0.00,,,0.00,meteohub,2013-11-19 19:10:00,
2013-11-19 13:15:00,61.0,35.4,29.94,SSW,192,8.0,27.0,39,0.00,,,0.00,meteohub,2013-11-19 19:15:00,
2013-11-19 13:21:00,61.0,34.9,29.94,South,178,12.0,27.0,39,0.00,,,0.00,meteohub,2013-11-19 19:21:00,
2013-11-19 13:26:00,61.0,35.1,29.93,SSW,193,13.0,30.0,39,0.00,,,0.00,meteohub,2013-11-19 19:26:00,
2013-11-19 13:31:00,61.0,34.2,29.93,SSE,156,5.0,30.0,39,0.00,,,0.00,meteohub,2013-11-19 19:31:00,
2013-11-19 13:36:00,62.1,34.7,29.93,SSW,198,11.0,30.0,38,0.00,,,0.00,meteohub,2013-11-19 19:36:00,
2013-11-19 13:42:00,62.1,34.9,29.93,SSW,196,20.0,25.0,37,0.00,,,0.00,meteohub,2013-11-19 19:42:00,
2013-11-19 13:47:00,62.1,34.5,29.93,SSW,207,18.0,25.0,38,0.00,,,0.00,meteohub,2013-11-19 19:47:00,
2013-11-19 13:52:00,62.1,34.9,29.92,South,170,8.0,25.0,38,0.00,,,0.00,meteohub,2013-11-19 19:52:00,
2013-11-19 13:57:00,62.1,34.9,29.92,South,186,8.0,24.0,37,0.00,,,0.00,meteohub,2013-11-19 19:57:00,
2013-11-19 14:02:00,62.1,33.4,29.91,SSW,212,25.0,25.0,35,0.00,,,0.00,meteohub,2013-11-19 20:02:00,
2013-11-19 14:07:00,62.1,33.4,29.91,SSE,156,9.0,30.0,36,0.00,,,0.00,meteohub,2013-11-19 20:07:00,
2013-11-19 14:12:00,62.1,32.7,29.91,SSE,162,10.0,30.0,35,0.00,,,0.00,meteohub,2013-11-19 20:12:00,
2013-11-19 14:17:00,62.1,32.7,29.91,South,182,18.0,30.0,34,0.00,,,0.00,meteohub,2013-11-19 20:17:00,
2013-11-19 14:22:00,62.1,32.9,29.90,South,172,19.0,29.0,35,0.00,,,0.00,meteohub,2013-11-19 20:22:00,
2013-11-19 14:27:00,62.1,32.0,29.90,South,180,18.0,28.0,35,0.00,,,0.00,meteohub,2013-11-19 20:27:00,
2013-11-19 14:32:00,62.1,32.7,29.89,SSW,194,8.0,29.0,34,0.00,,,0.00,meteohub,2013-11-19 20:32:00,
2013-11-19 14:37:00,62.1,32.4,29.89,SSE,163,7.0,29.0,35,0.00,,,0.00,meteohub,2013-11-19 20:37:00,
2013-11-19 14:42:00,62.1,31.5,29.89,South,173,16.0,29.0,34,0.00,,,0.00,meteohub,2013-11-19 20:42:00,
2013-11-19 14:47:00,62.1,32.0,29.89,SSE,159,14.0,23.0,34,0.00,,,0.00,meteohub,2013-11-19 20:47:00,
2013-11-19 14:52:00,62.1,31.3,29.89,SSE,168,16.0,23.0,34,0.00,,,0.00,meteohub,2013-11-19 20:52:00,
2013-11-19 14:57:00,62.1,32.0,29.89,SSE,168,15.0,23.0,34,0.00,,,0.00,meteohub,2013-11-19 20:57:00,
2013-11-19 15:02:00,62.1,31.3,29.88,South,181,19.0,22.0,34,0.00,,,0.00,meteohub,2013-11-19 21:02:00,
2013-11-19 15:07:00,61.0,31.6,29.88,SSE,167,8.0,23.0,34,0.00,,,0.00,meteohub,2013-11-19 21:07:00,
2013-11-19 15:12:00,61.0,31.5,29.88,South,172,10.0,23.0,34,0.00,,,0.00,meteohub,2013-11-19 21:12:00,
2013-11-19 15:17:00,61.0,31.5,29.88,SSE,167,13.0,23.0,34,0.00,,,0.00,meteohub,2013-11-19 21:17:00,
2013-11-19 15:22:00,61.0,31.5,29.88,SSE,167,10.0,21.0,34,0.00,,,0.00,meteohub,2013-11-19 21:22:00,
2013-11-19 15:27:00,61.0,31.3,29.88,South,182,6.0,22.0,34,0.00,,,0.00,meteohub,2013-11-19 21:27:00,
2013-11-19 15:32:00,60.1,31.6,29.88,SSW,205,7.0,22.0,35,0.00,,,0.00,meteohub,2013-11-19 21:32:00,
2013-11-19 15:37:00,60.1,30.9,29.88,SSE,153,14.0,22.0,34,0.00,,,0.00,meteohub,2013-11-19 21:37:00,
2013-11-19 15:42:00,61.0,31.3,29.88,SE,137,10.0,21.0,34,0.00,,,0.00,meteohub,2013-11-19 21:42:00,
2013-11-19 15:47:00,61.0,30.6,29.88,South,184,21.0,21.0,33,0.00,,,0.00,meteohub,2013-11-19 21:47:00,
2013-11-19 15:52:00,61.0,30.0,29.87,SSE,162,9.0,21.0,34,0.00,,,0.00,meteohub,2013-11-19 21:52:00,
2013-11-19 15:57:00,61.0,30.0,29.87,South,190,11.0,21.0,33,0.00,,,0.00,meteohub,2013-11-19 21:57:00,
2013-11-19 16:02:00,61.0,30.0,29.87,South,171,13.0,21.0,32,0.00,,,0.00,meteohub,2013-11-19 22:02:00,
2013-11-19 16:07:00,61.0,29.7,29.87,South,173,20.0,22.0,32,0.00,,,0.00,meteohub,2013-11-19 22:07:00,
2013-11-19 16:12:00,60.1,30.2,29.87,SSE,160,9.0,22.0,33,0.00,,,0.00,meteohub,2013-11-19 22:12:00,
2013-11-19 16:17:00,60.1,29.8,29.87,South,173,8.0,25.0,33,0.00,,,0.00,meteohub,2013-11-19 22:17:00,
2013-11-19 16:22:00,59.0,29.5,29.87,South,182,10.0,25.0,34,0.00,,,0.00,meteohub,2013-11-19 22:22:00,
2013-11-19 16:27:00,59.0,29.1,29.86,SE,144,11.0,17.0,33,0.00,,,0.00,meteohub,2013-11-19 22:27:00,
2013-11-19 16:32:00,59.0,28.9,29.87,SSE,159,11.0,22.0,33,0.00,,,0.00,meteohub,2013-11-19 22:32:00,
2013-11-19 16:38:00,59.0,28.8,29.87,SSE,159,5.0,22.0,34,0.00,,,0.00,meteohub,2013-11-19 22:38:00,
2013-11-19 16:43:00,57.9,29.3,29.87,South,177,10.0,20.0,34,0.00,,,0.00,meteohub,2013-11-19 22:43:00,
2013-11-19 16:48:00,57.9,28.9,29.87,SSE,168,7.0,20.0,34,0.00,,,0.00,meteohub,2013-11-19 22:48:00,
2013-11-19 16:53:00,57.9,28.9,29.87,South,186,8.0,20.0,34,0.00,,,0.00,meteohub,2013-11-19 22:53:00,
2013-11-19 16:58:00,57.9,29.3,29.87,SSW,192,9.0,17.0,35,0.00,,,0.00,meteohub,2013-11-19 22:58:00,
2013-11-19 17:04:00,57.0,28.9,29.87,South,188,10.0,17.0,35,0.00,,,0.00,meteohub,2013-11-19 23:04:00,
2013-11-19 17:09:00,57.0,28.8,29.88,SSW,199,7.0,15.0,35,0.00,,,0.00,meteohub,2013-11-19 23:09:00,
2013-11-19 17:14:00,57.0,28.8,29.88,South,169,11.0,15.0,35,0.00,,,0.00,meteohub,2013-11-19 23:14:00,
2013-11-19 17:19:00,57.0,28.9,29.88,South,172,7.0,15.0,35,0.00,,,0.00,meteohub,2013-11-19 23:19:00,
2013-11-19 17:24:00,57.0,28.2,29.87,South,181,10.0,14.0,34,0.00,,,0.00,meteohub,2013-11-19 23:24:00,
2013-11-19 17:30:00,57.0,28.2,29.87,SSE,162,10.0,15.0,34,0.00,,,0.00,meteohub,2013-11-19 23:30:00,
2013-11-19 17:35:00,57.0,27.5,29.87,South,185,13.0,19.0,34,0.00,,,0.00,meteohub,2013-11-19 23:35:00,
2013-11-19 17:40:00,57.0,28.2,29.87,SSE,153,7.0,19.0,34,0.00,,,0.00,meteohub,2013-11-19 23:40:00,
2013-11-19 17:45:00,57.0,28.0,29.87,SSE,150,6.0,15.0,34,0.00,,,0.00,meteohub,2013-11-19 23:45:00,
2013-11-19 17:50:00,57.0,27.3,29.87,SSE,155,6.0,22.0,33,0.00,,,0.00,meteohub,2013-11-19 23:50:00,
2013-11-19 17:56:00,57.0,27.5,29.87,South,173,13.0,22.0,33,0.00,,,0.00,meteohub,2013-11-19 23:56:00,
2013-11-19 18:01:00,57.0,27.5,29.87,SSE,164,8.0,22.0,33,0.00,,,0.00,meteohub,2013-11-20 00:01:00,
2013-11-19 18:06:00,57.0,27.3,29.87,South,182,3.0,18.0,34,0.00,,,0.00,meteohub,2013-11-20 00:06:00,
2013-11-19 18:11:00,57.0,27.1,29.87,South,175,11.0,18.0,33,0.00,,,0.00,meteohub,2013-11-20 00:11:00,
2013-11-19 18:17:00,57.0,27.9,29.87,SSE,160,5.0,19.0,33,0.00,,,0.00,meteohub,2013-11-20 00:17:00,
2013-11-19 18:22:00,57.0,27.0,29.88,South,171,15.0,19.0,33,0.00,,,0.00,meteohub,2013-11-20 00:22:00,
2013-11-19 18:27:00,57.0,26.8,29.88,South,175,8.0,19.0,33,0.00,,,0.00,meteohub,2013-11-20 00:27:00,
2013-11-19 18:32:00,57.0,26.8,29.88,SE,141,16.0,18.0,33,0.00,,,0.00,meteohub,2013-11-20 00:32:00,
2013-11-19 18:37:00,57.0,26.8,29.88,South,177,11.0,24.0,33,0.00,,,0.00,meteohub,2013-11-20 00:37:00,
2013-11-19 18:42:00,55.9,26.6,29.88,South,178,5.0,24.0,33,0.00,,,0.00,meteohub,2013-11-20 00:42:00,
2013-11-19 18:47:00,55.9,27.3,29.88,SSE,150,4.0,24.0,34,0.00,,,0.00,meteohub,2013-11-20 00:47:00,
2013-11-19 18:52:00,55.9,27.1,29.88,SSW,196,8.0,19.0,33,0.00,,,0.00,meteohub,2013-11-20 00:52:00,
2013-11-19 18:57:00,55.9,27.0,29.88,SSE,157,6.0,19.0,34,0.00,,,0.00,meteohub,2013-11-20 00:57:00,
2013-11-19 19:02:00,55.9,26.1,29.88,SSW,194,13.0,19.0,33,0.00,,,0.00,meteohub,2013-11-20 01:02:00,
2013-11-19 19:07:00,55.9,26.1,29.87,South,183,10.0,18.0,34,0.00,,,0.00,meteohub,2013-11-20 01:07:00,
2013-11-19 19:12:00,55.9,25.9,29.89,South,182,4.0,26.0,34,0.00,,,0.00,meteohub,2013-11-20 01:12:00,
2013-11-19 19:17:00,55.9,25.9,29.89,SSE,162,16.0,26.0,34,0.00,,,0.00,meteohub,2013-11-20 01:17:00,
2013-11-19 19:22:00,55.9,26.6,29.88,SSE,160,10.0,26.0,33,0.00,,,0.00,meteohub,2013-11-20 01:22:00,
2013-11-19 19:27:00,55.9,26.4,29.88,SSW,193,15.0,20.0,34,0.00,,,0.00,meteohub,2013-11-20 01:27:00,
2013-11-19 19:32:00,55.0,26.4,29.88,South,177,3.0,25.0,34,0.00,,,0.00,meteohub,2013-11-20 01:32:00,
2013-11-19 19:37:00,55.0,26.4,29.88,SSE,157,7.0,25.0,34,0.00,,,0.00,meteohub,2013-11-20 01:37:00,
2013-11-19 19:42:00,55.0,26.2,29.88,SSE,153,13.0,25.0,34,0.00,,,0.00,meteohub,2013-11-20 01:42:00,
2013-11-19 19:47:00,55.0,26.1,29.88,South,174,11.0,21.0,34,0.00,,,0.00,meteohub,2013-11-20 01:47:00,
2013-11-19 19:52:00,55.0,26.6,29.88,SSE,162,10.0,21.0,35,0.00,,,0.00,meteohub,2013-11-20 01:52:00,
2013-11-19 19:57:00,54.0,26.4,29.88,South,180,12.0,21.0,35,0.00,,,0.00,meteohub,2013-11-20 01:57:00,
2013-11-19 20:02:00,54.0,26.2,29.88,South,180,6.0,23.0,35,0.00,,,0.00,meteohub,2013-11-20 02:02:00,
2013-11-19 20:07:00,54.0,26.8,29.88,South,178,10.0,23.0,35,0.00,,,0.00,meteohub,2013-11-20 02:07:00,
2013-11-19 20:12:00,54.0,26.6,29.88,South,180,22.0,23.0,35,0.00,,,0.00,meteohub,2013-11-20 02:12:00,
2013-11-19 20:17:00,54.0,26.6,29.88,SSE,153,10.0,22.0,36,0.00,,,0.00,meteohub,2013-11-20 02:17:00,
2013-11-19 20:22:00,54.0,26.4,29.88,South,185,15.0,23.0,36,0.00,,,0.00,meteohub,2013-11-20 02:22:00,
2013-11-19 20:27:00,53.1,26.2,29.87,SSE,167,7.0,23.0,37,0.00,,,0.00,meteohub,2013-11-20 02:27:00,
2013-11-19 20:32:00,53.1,26.1,29.88,South,171,12.0,20.0,36,0.00,,,0.00,meteohub,2013-11-20 02:32:00,
2013-11-19 20:37:00,53.1,26.6,29.88,SSE,155,7.0,20.0,37,0.00,,,0.00,meteohub,2013-11-20 02:37:00,
2013-11-19 20:42:00,53.1,26.4,29.87,South,173,6.0,19.0,37,0.00,,,0.00,meteohub,2013-11-20 02:42:00,
2013-11-19 20:47:00,53.1,26.2,29.87,South,172,8.0,19.0,37,0.00,,,0.00,meteohub,2013-11-20 02:47:00,
2013-11-19 20:52:00,53.1,27.0,29.87,South,183,11.0,19.0,38,0.00,,,0.00,meteohub,2013-11-20 02:52:00,
2013-11-19 20:57:00,52.0,26.8,29.87,SSE,161,9.0,16.0,38,0.00,,,0.00,meteohub,2013-11-20 02:57:00,
2013-11-19 21:02:00,52.0,26.6,29.88,South,189,9.0,16.0,38,0.00,,,0.00,meteohub,2013-11-20 03:02:00,
2013-11-19 21:07:00,52.0,26.6,29.88,South,180,6.0,17.0,38,0.00,,,0.00,meteohub,2013-11-20 03:07:00,
2013-11-19 21:12:00,52.0,26.4,29.88,SSE,154,8.0,17.0,39,0.00,,,0.00,meteohub,2013-11-20 03:12:00,
2013-11-19 21:17:00,52.0,26.2,29.88,South,173,16.0,17.0,39,0.00,,,0.00,meteohub,2013-11-20 03:17:00,
2013-11-19 21:22:00,52.0,26.2,29.88,South,175,6.0,19.0,39,0.00,,,0.00,meteohub,2013-11-20 03:22:00,
2013-11-19 21:27:00,52.0,26.8,29.88,South,182,11.0,19.0,39,0.00,,,0.00,meteohub,2013-11-20 03:27:00,
2013-11-19 21:32:00,51.1,26.6,29.88,South,178,7.0,17.0,39,0.00,,,0.00,meteohub,2013-11-20 03:32:00,
2013-11-19 21:37:00,51.1,26.6,29.88,SSE,162,11.0,17.0,39,0.00,,,0.00,meteohub,2013-11-20 03:37:00,
2013-11-19 21:42:00,51.1,26.4,29.88,South,186,9.0,17.0,39,0.00,,,0.00,meteohub,2013-11-20 03:42:00,
2013-11-19 21:47:00,51.1,26.2,29.88,SSW,195,5.0,17.0,40,0.00,,,0.00,meteohub,2013-11-20 03:47:00,
2013-11-19 21:52:00,51.1,26.8,29.88,South,170,5.0,17.0,40,0.00,,,0.00,meteohub,2013-11-20 03:52:00,
2013-11-19 21:57:00,51.1,26.6,29.88,SSE,160,7.0,17.0,40,0.00,,,0.00,meteohub,2013-11-20 03:57:00,
2013-11-19 22:02:00,51.1,26.6,29.87,South,173,5.0,17.0,41,0.00,,,0.00,meteohub,2013-11-20 04:02:00,
2013-11-19 22:07:00,50.0,26.4,29.87,SSW,196,5.0,17.0,41,0.00,,,0.00,meteohub,2013-11-20 04:07:00,
2013-11-19 22:12:00,50.0,26.4,29.87,SE,142,5.0,12.0,41,0.00,,,0.00,meteohub,2013-11-20 04:12:00,
2013-11-19 22:17:00,50.0,26.4,29.87,SSE,159,9.0,13.0,40,0.00,,,0.00,meteohub,2013-11-20 04:17:00,
2013-11-19 22:22:00,50.0,26.4,29.87,South,173,11.0,15.0,41,0.00,,,0.00,meteohub,2013-11-20 04:22:00,
2013-11-19 22:27:00,50.0,26.1,29.87,SSE,161,5.0,15.0,41,0.00,,,0.00,meteohub,2013-11-20 04:27:00,
2013-11-19 22:32:00,50.0,26.6,29.87,South,180,10.0,15.0,41,0.00,,,0.00,meteohub,2013-11-20 04:32:00,
2013-11-19 22:37:00,50.0,26.1,29.87,SSE,163,3.0,15.0,41,0.00,,,0.00,meteohub,2013-11-20 04:37:00,
2013-11-19 22:42:00,50.0,26.4,29.86,South,181,4.0,15.0,41,0.00,,,0.00,meteohub,2013-11-20 04:42:00,
2013-11-19 22:47:00,50.0,26.4,29.86,SSE,161,4.0,14.0,42,0.00,,,0.00,meteohub,2013-11-20 04:47:00,
2013-11-19 22:52:00,50.0,26.4,29.86,South,170,11.0,16.0,42,0.00,,,0.00,meteohub,2013-11-20 04:52:00,
2013-11-19 22:57:00,48.9,26.4,29.87,SSW,192,7.0,16.0,42,0.00,,,0.00,meteohub,2013-11-20 04:57:00,
2013-11-19 23:01:00,48.9,26.4,29.87,South,181,6.0,16.0,42,0.00,,,0.00,meteohub,2013-11-20 05:01:00,
2013-11-19 23:02:00,48.9,26.4,29.87,South,174,4.0,16.0,42,0.00,,,0.00,meteohub,2013-11-20 05:02:00,
2013-11-19 23:03:00,48.9,26.4,29.87,SSE,168,5.0,16.0,42,0.00,,,0.00,meteohub,2013-11-20 05:03:00,
2013-11-19 23:08:00,48.9,26.2,29.87,SSE,167,4.0,13.0,42,0.00,,,0.00,meteohub,2013-11-20 05:08:00,
2013-11-19 23:13:00,48.9,26.8,29.87,South,175,5.0,12.0,42,0.00,,,0.00,meteohub,2013-11-20 05:13:00,
2013-11-19 23:18:00,48.9,26.4,29.87,South,176,7.0,12.0,42,0.00,,,0.00,meteohub,2013-11-20 05:18:00,
2013-11-19 23:23:00,48.9,26.4,29.86,South,182,4.0,12.0,42,0.00,,,0.00,meteohub,2013-11-20 05:23:00,
2013-11-19 23:28:00,48.9,26.4,29.86,South,184,5.0,12.0,43,0.00,,,0.00,meteohub,2013-11-20 05:28:00,
2013-11-19 23:34:00,48.9,27.0,29.86,SSE,160,7.0,12.0,43,0.00,,,0.00,meteohub,2013-11-20 05:34:00,
2013-11-19 23:39:00,48.9,27.0,29.86,South,174,11.0,12.0,43,0.00,,,0.00,meteohub,2013-11-20 05:39:00,
2013-11-19 23:44:00,48.9,26.2,29.86,SSE,159,3.0,12.0,43,0.00,,,0.00,meteohub,2013-11-20 05:44:00,
2013-11-19 23:49:00,48.9,26.4,29.86,SSE,157,3.0,12.0,43,0.00,,,0.00,meteohub,2013-11-20 05:49:00,
2013-11-19 23:54:00,48.9,26.4,29.86,SE,142,3.0,12.0,43,0.00,,,0.00,meteohub,2013-11-20 05:54:00,
2013-11-19 23:59:00,48.9,27.1,29.86,South,178,9.0,12.0,43,0.00,,,0.00,meteohub,2013-11-20 05:59:00,